Date String (YYYY-MM-DD hh:mm:ss) UTC,Instrument flags,absolute air pressure of the measurement (hPa),sample flow rate (lpm),inlet stack bypass flow (lpm),air temperature of the measurement (°C),ambient temperature measured by the external sensor (°C),aerosol sample conditioner tube jacket temperature (°C),OPC LED temperature (°C),internal box temperature (°C),relative humidity of the measurement (%),span deviation,mass concentration of particles derived from Lorenz-Mie calculation of OPC scattering (μg/m³),mass concentration of particles derived from Lorenz-Mie calculation of OPC scattering (μg/m³),mass concentration of particles derived from Lorenz-Mie calculation of OPC scattering (μg/m³)
DateTimeUTC,F1_M11,P_M11,Q1_M11,Q2_M11,T1_M11,T2_M11,T3_M11,T4_M11,T5_M11,U1_M11,ZSPAN_M11,X0_M11,X2_M11,X1_M11
2024-05-01 00:00:00,SystemResetWarning,0821.6,4.99,000.00,025.7,024.2,000.0,033.9,026.9,008.3,0000.0,0010.24,0003.56,0001.86
2024-05-01 00:01:00,SystemResetWarning,0821.9,5.00,000.00,025.2,021.9,000.0,033.9,025.8,008.5,0000.0,0010.01,0003.57,0001.86
2024-05-01 00:02:00,SystemResetWarning,0822.0,5.02,000.00,024.9,021.5,000.0,033.9,025.4,008.8,0000.0,0009.48,0003.56,0001.86
2024-05-01 00:03:00,SystemResetWarning,0821.9,5.00,000.00,024.7,022.0,000.0,033.7,025.6,008.7,0000.0,0009.37,0003.55,0001.86
2024-05-01 00:04:00,SystemResetWarning,0821.6,4.99,000.00,024.7,022.4,000.0,033.6,026.0,008.9,0000.0,0009.14,0003.56,0001.86
2024-05-01 00:05:00,SystemResetWarning,0821.6,5.00,000.00,024.8,022.8,000.0,033.5,026.3,008.6,0000.0,0009.10,0003.54,0001.86
2024-05-01 00:06:00,SystemResetWarning,0821.6,5.01,000.00,024.8,023.2,000.0,033.5,026.5,008.8,0000.0,0009.11,0003.56,0001.86
2024-05-01 00:07:00,SystemResetWarning,0821.7,5.00,000.00,024.9,023.5,000.0,033.4,026.6,008.8,0000.0,0009.00,0003.57,0001.84
2024-05-01 00:08:00,SystemResetWarning,0821.8,5.00,000.00,025.0,023.8,000.0,033.4,026.8,008.5,0000.0,0008.93,0003.57,0001.84
2024-05-01 00:09:00,SystemResetWarning,0821.8,5.00,000.00,025.1,024.0,000.0,033.4,026.9,008.6,0000.0,0008.90,0003.59,0001.81
2024-05-01 00:10:00,SystemResetWarning,0822.0,5.00,000.00,025.1,024.2,000.0,033.4,027.0,008.8,0000.0,0008.53,0003.56,0001.81
2024-05-01 00:11:00,SystemResetWarning,0822.0,4.99,000.00,025.2,024.4,000.0,033.5,027.1,009.0,0000.0,0008.50,0003.59,0001.83
2024-05-01 00:12:00,SystemResetWarning,0822.0,5.00,000.00,025.3,024.6,000.0,033.5,027.2,009.8,0000.0,0008.55,0003.57,0001.81
2024-05-01 00:13:00,SystemResetWarning,0822.1,5.00,000.00,025.3,024.7,000.0,033.5,027.3,010.0,0000.0,0008.73,0003.59,0001.83
2024-05-01 00:14:00,SystemResetWarning,0822.1,5.00,000.00,025.4,024.8,000.0,033.5,027.3,009.9,0000.0,0008.82,0003.61,0001.84
2024-05-01 00:15:00,SystemResetWarning,0822.1,5.00,000.00,025.5,024.9,000.0,033.6,027.4,010.7,0000.0,0008.82,0003.63,0001.83
2024-05-01 00:16:00,SystemResetWarning,0822.2,5.00,000.00,025.5,025.0,000.0,033.6,027.5,013.4,0000.0,0008.86,0003.66,0001.84
2024-05-01 00:17:00,SystemResetWarning,0822.2,5.01,000.00,025.6,025.1,000.0,033.7,027.5,014.7,0000.0,0009.19,0003.72,0001.85
2024-05-01 00:18:00,SystemResetWarning,0822.2,5.01,000.00,025.6,025.2,000.0,033.7,027.6,015.4,0000.0,0009.84,0003.79,0001.89
2024-05-01 00:19:00,SystemResetWarning,0822.2,5.00,000.00,025.7,025.2,000.0,033.7,027.6,015.2,0000.0,0011.55,0003.80,0001.93
2024-05-01 00:20:00,SystemResetWarning,0822.1,5.00,000.00,025.7,025.3,000.0,033.8,027.7,015.5,0000.0,0011.75,0003.86,0001.99
2024-05-01 00:21:00,SystemResetWarning,0822.2,5.00,000.00,025.8,025.3,000.0,033.8,027.7,015.5,0000.0,0012.05,0003.92,0002.04
2024-05-01 00:22:00,SystemResetWarning,0822.1,4.98,000.00,025.7,023.9,000.0,033.9,026.9,015.4,0000.0,0013.46,0003.94,0002.07
2024-05-01 00:23:00,SystemResetWarning,0822.0,5.02,000.00,025.3,022.6,000.0,033.9,026.1,015.6,0000.0,0013.93,0004.04,0002.13
2024-05-01 00:24:00,SystemResetWarning,0822.0,5.00,000.00,025.1,022.7,000.0,033.9,026.1,016.1,0000.0,0014.17,0004.09,0002.17
2024-05-01 00:25:00,SystemResetWarning,0822.1,4.99,000.00,025.1,023.0,000.0,033.7,026.3,016.1,0000.0,0014.69,0004.12,0002.21
2024-05-01 00:26:00,SystemResetWarning,0822.1,5.02,000.00,025.1,023.3,000.0,033.7,026.6,016.1,0000.0,0014.80,0004.13,0002.23
2024-05-01 00:27:00,SystemResetWarning,0822.1,5.00,000.00,025.2,023.7,000.0,033.7,026.8,016.4,0000.0,0015.13,0004.17,0002.26
2024-05-01 00:28:00,SystemResetWarning,0822.1,4.99,000.00,025.2,023.9,000.0,033.6,026.9,016.9,0000.0,0015.61,0004.24,0002.28
2024-05-01 00:29:00,SystemResetWarning,0822.2,5.00,000.00,025.3,024.2,000.0,033.6,027.1,016.7,0000.0,0015.31,0004.19,0002.27
2024-05-01 00:30:00,SystemResetWarning,0822.1,5.00,000.00,025.3,024.4,000.0,033.6,027.2,016.8,0000.0,0014.36,0004.20,0002.25
2024-05-01 00:31:00,SystemResetWarning,0822.1,5.01,000.00,025.4,024.5,000.0,033.6,027.2,017.1,0000.0,0014.16,0004.19,0002.22
2024-05-01 00:32:00,SystemResetWarning,0822.2,5.01,000.00,025.4,024.7,000.0,033.7,027.3,017.0,0000.0,0015.45,0004.20,0002.22
2024-05-01 00:33:00,SystemResetWarning,0822.2,5.00,000.00,025.5,024.8,000.0,033.7,027.4,017.0,0000.0,0014.37,0004.19,0002.22
2024-05-01 00:34:00,SystemResetWarning,0822.3,5.00,000.00,025.5,024.9,000.0,033.7,027.4,016.9,0000.0,0014.41,0004.15,0002.21
2024-05-01 00:35:00,SystemResetWarning,0822.3,5.00,000.00,025.6,025.0,000.0,033.7,027.5,017.2,0000.0,0013.96,0004.09,0002.19
2024-05-01 00:36:00,SystemResetWarning,0822.3,4.99,000.00,025.6,025.1,000.0,033.8,027.5,017.5,0000.0,0013.32,0004.06,0002.15
2024-05-01 00:37:00,SystemResetWarning,0822.3,5.00,000.00,025.7,025.1,000.0,033.8,027.6,017.6,0000.0,0013.26,0004.07,0002.14
2024-05-01 00:38:00,SystemResetWarning,0822.3,5.01,000.00,025.7,025.2,000.0,033.9,027.6,017.7,0000.0,0013.41,0004.05,0002.13
2024-05-01 00:39:00,SystemResetWarning,0822.3,5.00,000.00,025.8,025.3,000.0,033.9,027.7,017.6,0000.0,0013.31,0003.96,0002.10
2024-05-01 00:40:00,SystemResetWarning,0822.3,4.99,000.00,025.8,025.1,000.0,033.9,027.6,017.6,0000.0,0013.31,0003.95,0002.10
2024-05-01 00:41:00,SystemResetWarning,0822.2,4.98,000.00,025.5,023.2,000.0,034.0,026.5,018.0,0000.0,0012.62,0003.92,0002.09
2024-05-01 00:42:00,SystemResetWarning,0822.2,5.03,000.00,025.2,022.4,000.0,034.0,026.0,019.0,0000.0,0012.40,0003.87,0002.09
2024-05-01 00:43:00,SystemResetWarning,0822.2,4.99,000.00,025.1,022.7,000.0,033.9,026.1,019.6,0000.0,0011.40,0003.82,0002.06
2024-05-01 00:44:00,SystemResetWarning,0822.3,5.00,000.00,025.1,023.1,000.0,033.8,026.4,019.7,0000.0,0011.43,0003.82,0002.03
2024-05-01 00:45:00,SystemResetWarning,0822.3,5.01,000.00,025.1,023.4,000.0,033.7,026.7,019.1,0000.0,0011.07,0003.78,0001.99
2024-05-01 00:46:00,SystemResetWarning,0822.4,4.99,000.00,025.1,023.7,000.0,033.7,026.8,018.8,0000.0,0011.23,0003.80,0001.96
2024-05-01 00:47:00,SystemResetWarning,0822.3,5.00,000.00,025.2,023.9,000.0,033.7,027.0,019.2,0000.0,0011.35,0003.78,0001.95
2024-05-01 00:48:00,SystemResetWarning,0822.3,5.00,000.00,025.3,024.2,000.0,033.7,027.1,019.4,0000.0,0011.86,0003.76,0001.93
2024-05-01 00:49:00,SystemResetWarning,0822.3,5.00,000.00,025.3,024.3,000.0,033.7,027.1,019.5,0000.0,0011.31,0003.67,0001.91
2024-05-01 00:50:00,SystemResetWarning,0822.3,5.00,000.00,025.4,024.5,000.0,033.7,027.2,018.7,0000.0,0010.32,0003.60,0001.90
2024-05-01 00:51:00,SystemResetWarning,0822.3,4.99,000.00,025.4,024.6,000.0,033.7,027.3,018.4,0000.0,0011.13,0003.60,0001.89
2024-05-01 00:52:00,SystemResetWarning,0822.3,4.99,000.00,025.5,024.8,000.0,033.7,027.4,018.5,0000.0,0011.59,0003.55,0001.87
2024-05-01 00:53:00,SystemResetWarning,0822.4,5.00,000.00,025.5,024.9,000.0,033.7,027.4,018.3,0000.0,0011.78,0003.50,0001.85
2024-05-01 00:54:00,SystemResetWarning,0822.4,5.01,000.00,025.6,025.0,000.0,033.8,027.5,018.0,0000.0,0011.37,0003.46,0001.86
2024-05-01 00:55:00,SystemResetWarning,0822.3,5.01,000.00,025.6,025.0,000.0,033.8,027.5,018.1,0000.0,0010.99,0003.41,0001.85
2024-05-01 00:56:00,SystemResetWarning,0822.4,5.00,000.00,025.7,025.1,000.0,033.8,027.6,017.9,0000.0,0010.86,0003.40,0001.85
2024-05-01 00:57:00,SystemResetWarning,0822.4,4.99,000.00,025.7,025.1,000.0,033.9,027.6,017.7,0000.0,0011.98,0003.40,0001.89
2024-05-01 00:58:00,SystemResetWarning,0822.4,5.00,000.00,025.8,025.2,000.0,033.9,027.7,017.8,0000.0,0012.58,0003.40,0001.90
2024-05-01 00:59:00,SystemResetWarning,0822.4,5.01,000.00,025.8,025.2,000.0,033.9,027.7,017.9,0000.0,0012.45,0003.36,0001.90
